Content
SEND FEEDBACK

Daily
Averages
Monthly
Summary
United States of America

WESTERNPORT, MARYLAND


Home > North America > United States > Maryland
Elevation: 281 meters     Latitude: 39 29N     Longitude: 079 03W

WEATHER
 
SELECT A DAY
Number of Records: 198,825;   Date Range: 5/31/06 - 9/30/14
 
SHARE

PRINT THIS DATA

[ ← Previous Day ]
WEATHER ALMANAC - 11 JULY, 2014
[ Next Day → ]
[ °F ]   °C
Weather ElementAverageHighLow
Temperature18.7 °C25 °C (4:10 pm)14 °C (1:55 am)
Dewpoint-0.8 °C17 °C (10:35 am) (7:00 pm)
Humidity62.8 %100 % (12:50 am)38 % (6:30 pm)
Barometer1025.1 hPa1026.4 hPa (12:45 am)1023.7 hPa (12:05 am)
Wind Speed6.3 km/h13 km/h (1:35 pm)
Weather ElementAverage
Visibility15.1 km
Wind DirectionESE (109 °)

Weather ElementTotal
Precipitation---
Cooling Degree Days1.2 (Base 18.3)
Growing Degree Days9.5 (Base 10)
Averaged from 68 records on 11 July, 2014
WEATHER CONDITIONS BREAKOUT
WIND DIRECTION BREAKOUT
WEATHER BY HOUR - 11 JULY, 2014
[ °F ]   °C
Local TimeTemperatureDewpointHumidityBarometerVisibilityWind DirectionWind SpeedGust SpeedPrecipitationEventsConditions
12:00 AM15 °C-17.8 °C1023.7 hPa16.1 kmSE (130°)9.3 km/hClear
12:20 AM15 °C-17.8 °C1023.7 hPa16.1 kmSE (130°)7.4 km/hClear
12:40 AM15 °C-17.8 °C1023.7 hPa16.1 kmESE (120°)13 km/hClear
1:00 AM15 °C-17.8 °C1023.7 hPa11.3 kmSE (130°)11.1 km/hClear
1:20 AM15 °C-17.8 °C1023.7 hPa8 kmSE (140°)11.1 km/hHaze
1:40 AM15 °C-17.8 °C1023.7 hPa8 kmSSE (160°)9.3 km/hHaze
2:00 AM15 °C-17.8 °C1023.7 hPa11.3 kmSE (140°)13 km/hClear
2:20 AM15 °C-17.8 °C1023.7 hPa11.3 kmSE (130°)11.1 km/hClear
2:40 AM15 °C-17.8 °C1023.7 hPa11.3 kmSE (140°)11.1 km/hClear
3:00 AM15 °C-17.8 °C1023.7 hPa16.1 kmSE (140°)11.1 km/hClear
3:20 AM15 °C-17.8 °C1023.7 hPa11.3 kmSE (140°)11.1 km/hClear
3:40 AM15 °C-17.8 °C1024 hPa11.3 kmSSE (150°)13 km/hClear
4:00 AM14 °C-17.8 °C1024 hPa11.3 kmSSE (160°)9.3 km/hClear
4:20 AM15 °C-17.8 °C1024 hPa16.1 kmSSE (160°)9.3 km/hClear
4:40 AM15 °C-17.8 °C1024 hPa16.1 kmSouth (170°)7.4 km/hClear
5:00 AM15 °C-17.8 °C1024 hPa16.1 kmSSW (210°)5.6 km/hClear
5:20 AM15 °C-17.8 °C1024 hPa16.1 kmSouth (190°)5.6 km/hClear
5:40 AM15 °C-17.8 °C1024.4 hPa16.1 kmCalmClear
6:00 AM15 °C-17.8 °C1024.4 hPa16.1 kmSE (140°)5.6 km/hClear
6:20 AM14 °C-17.8 °C1024.4 hPa8 kmSE (140°)7.4 km/hHaze
6:40 AM15 °C-17.8 °C1024.4 hPa16.1 kmSE (130°)7.4 km/hClear
7:00 AM15 °C-17.8 °C1024.7 hPa16.1 kmSE (140°)7.4 km/hClear
7:20 AM15 °C-17.8 °C1025.1 hPa11.3 kmSE (140°)5.6 km/hClear
7:40 AM16 °C-17.8 °C1025.4 hPa16.1 kmSE (130°)5.6 km/hClear
8:00 AM17 °C-17.8 °C1025.4 hPa16.1 kmESE (120°)5.6 km/hClear
8:20 AM17 °C-17.8 °C1025.7 hPa16.1 kmSE (130°)5.6 km/hClear
8:40 AM18 °C-17.8 °C1025.7 hPa16.1 kmSE (130°)7.4 km/hClear
9:00 AM18 °C-17.8 °C1025.7 hPa16.1 kmSE (130°)7.4 km/hClear
9:20 AM18 °C-17.8 °C1026.1 hPa16.1 kmSE (130°)7.4 km/hClear
9:40 AM18 °C-17.8 °C1026.1 hPa16.1 kmSE (130°)5.6 km/hClear
10:00 AM20 °C-17.8 °C1026.1 hPa16.1 kmCalmClear
10:20 AM21 °C17 °C78 %1026.1 hPa16.1 kmCalmScattered Clouds
10:40 AM21 °C15 °C68 %1026.1 hPa16.1 kmCalmScattered Clouds
11:00 AM21 °C15 °C68 %1026.4 hPa16.1 kmCalmScattered Clouds
11:20 AM22 °C12 °C53 %1026.4 hPa16.1 kmENE (60°)7.4 km/hScattered Clouds
11:40 AM22 °C11 °C50 %1026.4 hPa16.1 kmCalmMostly Cloudy
12:00 PM21 °C11 °C53 %1026.4 hPa16.1 kmCalmOvercast
12:20 PM21 °C11 °C53 %1026.4 hPa16.1 kmCalmOvercast
12:40 PM22 °C8 °C41 %1026.4 hPa16.1 kmCalmScattered Clouds
1:20 PM24 °C11 °C44 %1026.1 hPa16.1 kmSSE (150°)7.4 km/hScattered Clouds
1:40 PM23 °C10 °C44 %1026.1 hPa16.1 kmSE (130°)7.4 km/hClear
2:00 PM23 °C8 °C38 %1025.7 hPa16.1 kmCalmScattered Clouds
2:20 PM22 °C9 °C43 %1025.7 hPa16.1 kmCalmMostly Cloudy
2:40 PM23 °C8 °C38 %1025.7 hPa16.1 kmCalmMostly Cloudy
3:00 PM23 °C8 °C38 %1025.7 hPa16.1 kmENE (60°)5.6 km/hOvercast
3:20 PM25 °C13 °C47 %1025.7 hPa16.1 kmCalmMostly Cloudy
3:40 PM23 °C11 °C47 %1025.7 hPa16.1 kmEast (100°)7.4 km/hMostly Cloudy
4:00 PM23 °C12 °C50 %1025.7 hPa16.1 kmCalmMostly Cloudy
4:20 PM23 °C14 °C57 %1025.4 hPa16.1 kmCalmMostly Cloudy
4:40 PM22 °C13 °C57 %1025.1 hPa16.1 kmSouth (180°)5.6 km/hMostly Cloudy
5:00 PM23 °C14 °C57 %1025.4 hPa16.1 kmCalmMostly Cloudy
5:20 PM22 °C15 °C64 %1025.4 hPa16.1 kmSSE (160°)5.6 km/hScattered Clouds
5:40 PM23 °C15 °C61 %1025.1 hPa16.1 kmSE (130°)5.6 km/hScattered Clouds
6:20 PM23 °C14 °C57 %1025.1 hPa16.1 kmEast (100°)5.6 km/hClear
6:40 PM23 °C15 °C61 %1025.1 hPa16.1 kmSE (140°)9.3 km/hMostly Cloudy
7:20 PM22 °C15 °C64 %1025.1 hPa16.1 kmSE (130°)9.3 km/hScattered Clouds
7:40 PM21 °C16 °C73 %1025.1 hPa16.1 kmSE (140°)7.4 km/hClear
8:00 PM21 °C16 °C73 %1025.4 hPa16.1 kmSSE (150°)7.4 km/hClear
8:20 PM20 °C15 °C73 %1025.4 hPa16.1 kmSE (140°)9.3 km/hClear
8:40 PM20 °C15 °C73 %1025.7 hPa16.1 kmSSE (150°)9.3 km/hClear
9:00 PM19 °C15 °C78 %1025.7 hPa16.1 kmSSE (150°)9.3 km/hClear
9:20 PM19 °C15 °C78 %1025.7 hPa16.1 kmSSE (160°)9.3 km/hMostly Cloudy
9:40 PM19 °C15 °C78 %1025.7 hPa16.1 kmSSE (160°)9.3 km/hMostly Cloudy
10:00 PM18 °C15 °C83 %1026.1 hPa16.1 kmSSE (160°)9.3 km/hScattered Clouds
10:20 PM18 °C16 °C88 %1026.1 hPa16.1 kmSouth (170°)9.3 km/hClear
11:00 PM18 °C17 °C94 %1026.4 hPa16.1 kmSouth (190°)7.4 km/hScattered Clouds
11:20 PM17 °C17 °C100 %1026.4 hPa16.1 kmSouth (190°)7.4 km/hClear
11:40 PM17 °C17 °C100 %1026.4 hPa16.1 kmSouth (180°)9.3 km/hClear
Hourly data recorded from K2G4, located 0 kilometers away from Westernport, Maryland







STORIES FROM OUR PARTNERS